Dewpoint
67 70 69 70 70 70 70 72 72 72 72 73 73 72 73 73 71 70 73 72 72 72 72 74 74 74 73 74 72 73 75 75 75 76 76 77 75 76 77 78 77 75 76 75 73 74 75 74 74 73 74 72 70 68 66 65 67 67 69 68 67 69 69 70 69 69 71 70 68 67 67 68 65 69 67 66 67 69 69 70 71 68 67 66 65
69 71 70 69 69 70 70 70 71 71 70 71 72 71 72 73 74 73 72 73 73 71 73 72 73 74 73 74 74 74 75 77 75 74 76 75 76 72 73 75 77 75 76 76 76 72 74 75 73 71 72 72 71 68 67 64 65 65 65 67 67 69 71 70 70 70 70 70 69 70 68 68 68 69 69 68 68 70 69 69 67 66 65 67 67
68 72 71 70 71 69 69 68 69 69 68 69 69 68 70 72 73 73 71 71 73 72 72 71 74 75 74 74 76 75 77 75 74 75 75 75 75 73 72 75 75 75 75 75 74 75 73 73 72 72 69 70 71 69 69 68 67 68 67 67 69 68 69 71 71 71 70 70 71 69 69 69 69 69 70 69 72 70 71 69 65 63 64 66 65
72 74 73 71 70 69 70 68 66 65 65 65 66 67 68 69 71 71 70 70 70 73 73 72 74 76 75 76 77 76 76 75 75 75 75 75 75 75 75 75 74 74 74 74 74 75 73 73 71 70 72 72 72 72 71 71 71 72 71 71 71 71 72 72 73 72 71 70 72 71 70 71 69 70 68 69 69 69 69 69 68 67 65 63 64
74 74 75 73 71 69 68 67 66 65 63 62 63 64 65 66 69 68 68 69 70 71 73 74 75 76 73 74 75 76 75 75 76 74 74 75 75 74 75 75 75 74 74 74 74 74 74 73 71 71 72 71 72 71 72 74 74 72 72 72 72 72 72 72 73 73 73 72 71 72 73 72 71 72 71 69 69 69 69 70 68 68 70 66 61
74 75 75 74 73 71 70 68 66 65 64 62 62 62 62 63 64 66 66 68 70 70 72 72 73 75 75 75 75 76 76 76 76 76 73 73 73 73 74 74 73 74 74 73 73 73 73 74 74 73 72 71 71 71 73 74 73 72 73 74 74 74 75 75 74 74 74 73 73 71 73 69 71 72 72 72 69 67 68 69 69 70 71 68 66
75 75 73 73 74 73 72 70 69 65 65 65 63 63 63 62 62 63 64 65 67 68 69 72 73 73 74 74 73 74 75 74 75 76 74 74 74 74 72 72 73 73 73 71 69 70 71 72 74 73 74 74 72 73 73 74 72 74 75 75 74 75 73 73 74 74 73 72 71 71 70 71 71 69 70 73 74 75 73 71 71 70 70 71 71
75 74 73 72 74 74 74 73 71 70 68 69 68 66 64 64 64 64 64 65 65 65 65 67 69 71 71 72 73 73 74 74 76 76 75 74 73 73 73 72 71 71 72 71 70 69 69 69 69 71 72 73 73 74 74 73 74 74 73 74 75 75 74 72 72 72 71 70 69 68 69 70 71 72 72 73 74 72 68 65 66 68 70 71 72
75 74 74 73 74 74 74 74 74 73 71 72 72 70 68 68 68 68 69 67 64 65 65 65 67 69 69 70 71 70 69 71 72 74 74 74 73 72 72 72 71 71 71 69 69 70 70 68 67 67 70 71 73 75 75 77 73 72 73 73 74 74 75 73 73 73 72 71 71 71 69 68 69 69 66 66 66 66 67 67 69 69 68 67 69
75 74 74 73 74 75 75 75 76 76 74 73 74 73 71 70 69 69 70 70 70 70 70 69 68 68 69 70 70 68 69 69 74 76 75 74 74 71 71 73 73 72 72 72 69 68 68 67 66 68 73 73 76 78 76 75 75 74 74 74 73 73 73 72 72 71 71 71 69 68 66 65 64 66 64 65 66 66 63 66 67 68 68 69 70
74 73 73 74 75 75 75 75 76 77 77 76 76 76 76 74 73 73 72 72 72 73 72 70 69 67 66 67 68 66 67 71 70 70 71 72 73 72 72 73 73 73 71 72 71 68 66 66 67 69 75 77 76 77 76 75 74 73 73 74 75 75 73 72 71 71 70 69 68 67 65 67 67 68 66 62 60 63 65 68 68 68 69 69 68
73 73 75 74 75 74 74 73 73 74 75 76 78 77 77 77 77 76 74 72 74 72 71 71 71 69 66 66 65 65 69 65 63 65 67 69 72 74 69 69 68 69 68 68 68 67 67 67 65 63 65 67 70 76 78 76 73 73 72 72 72 73 73 75 74 72 72 71 70 70 68 68 68 68 63 62 66 68 71 72 71 71 70 69 69
71 72 72 73 72 72 72 72 72 72 73 74 76 76 77 76 76 75 74 74 73 73 73 71 72 71 69 70 68 69 72 63 62 64 64 64 66 72 70 68 67 66 67 68 69 71 72 71 68 65 62 72 73 72 76 77 77 74 73 73 73 72 68 68 70 75 73 73 72 71 70 69 70 70 69 72 75 74 73 71 71 71 70 69 69
72 71 72 72 73 72 73 72 73 73 74 73 74 75 74 73 74 74 74 74 74 73 71 72 71 73 72 72 74 73 72 64 60 61 62 63 63 67 71 69 68 67 68 69 67 69 70 70 71 71 70 72 75 74 75 76 76 77 78 77 76 76 74 68 67 68 72 71 72 72 73 74 73 74 75 76 75 75 74 74 74 73 72 71 73
71 71 71 72 72 72 72 73 72 73 73 73 73 71 71 71 71 72 71 73 73 73 72 72 72 72 72 73 72 69 65 58 58 60 60 61 62 65 71 67 65 66 69 70 73 72 73 71 71 71 73 74 75 77 76 75 75 75 76 75 74 74 72 71 72 72 72 71 72 73 74 74 75 75 75 75 76 76 75 75 75 74 74 75 74
71 71 70 73 74 74 74 73 73 72 73 72 71 70 70 72 70 71 70 71 73 73 73 72 72 72 73 72 71 68 63 56 57 57 58 59 62 73 74 73 70 70 71 72 73 74 73 73 74 73 75 76 69 67 72 76 73 74 74 74 74 73 71 74 71 71 73 70 70 69 69 70 66 74 74 71 73 73 73 72 72 72 72 71 70
69 70 70 70 71 72 71 70 71 71 71 70 70 70 70 70 71 72 71 73 74 74 72 71 73 73 72 72 70 69 64 58 55 54 55 57 65 73 75 74 74 73 72 74 73 72 71 73 75 74 74 71 63 60 63 69 74 73 74 74 73 71 69 68 70 66 66 65 64 63 62 62 61 60 60 60 68 70 70 70 70 69 69 69 68
68 68 69 69 70 70 70 70 70 70 70 69 69 69 71 71 71 72 72 72 72 72 72 72 72 71 71 69 68 65 63 59 53 53 54 55 63 73 73 74 74 74 74 74 72 73 75 76 75 74 71 67 58 59 60 69 75 74 72 72 72 72 71 70 67 70 64 62 61 62 62 61 61 61 61 61 61 64 70 70 69 68 67 67 67
67 68 68 69 69 70 69 69 69 69 69 69 70 70 71 70 71 70 69 70 70 71 72 70 70 71 68 66 66 64 62 60 54 53 53 53 63 73 73 74 72 73 73 73 74 74 74 72 70 66 65 61 56 56 57 64 73 74 74 73 72 72 72 73 73 73 73 72 75 76 75 69 72 74 74 66 64 67 69 71 69 69 69 69 70
67 67 67 68 68 69 69 68 68 68 68 69 69 70 70 69 68 68 68 68 68 69 69 70 69 70 69 68 66 65 62 61 59 52 51 53 55 69 69 71 71 72 72 73 74 73 73 72 66 60 57 56 54 53 54 55 66 71 73 72 72 73 71 71 73 73 74 73 73 74 74 74 73 73 73 73 73 73 72 72 72 72 72 73 72
66 66 66 65 66 67 67 67 66 66 67 67 67 66 67 66 66 66 67 67 66 66 67 68 67 67 67 67 67 66 64 62 60 52 51 52 54 60 66 66 68 69 70 69 69 69 69 69 67 62 57 55 53 51 51 53 57 68 71 72 71 67 65 71 72 72 74 74 72 72 73 72 72 72 71 72 72 73 72 72 73 72 71 72 71
65 65 65 64 65 64 64 65 65 65 65 65 65 64 64 64 63 64 66 66 65 65 65 66 66 65 65 66 64 65 64 63 63 56 52 52 52 54 63 65 64 68 67 67 67 66 66 65 66 63 55 53 52 50 50 52 56 67 71 56 55 57 69 70 70 71 71 71 70 72 72 73 70 73 72 72 71 75 75 75 75 74 76 75 76
65 64 64 64 65 63 63 63 62 60 62 63 63 63 63 63 64 64 64 63 63 63 63 62 62 62 62 62 62 62 63 63 61 61 54 52 51 53 54 61 59 69 64 66 65 64 64 65 65 62 54 51 52 53 56 57 60 63 53 55 55 56 62 68 70 71 70 70 70 70 70 69 71 74 74 75 71 74 72 72 73 74 73 73 73
63 62 62 63 63 60 58 58 59 61 61 62 62 62 62 62 62 63 63 63 63 62 62 61 61 60 60 60 60 60 62 62 61 61 59 54 52 51 52 53 55 63 63 61 62 62 64 64 62 52 53 50 53 57 56 58 61 54 54 56 61 62 69 70 68 69 69 69 69 69 69 70 70 71 71 71 70 71 72 70 70 72 74 73 75
60 60 60 60 60 59 61 61 61 59 59 60 61 61 61 62 62 62 62 61 63 63 63 61 62 62 60 59 60 60 61 61 60 62 62 60 55 53 54 55 55 55 60 57 59 57 58 53 53 52 54 54 56 58 60 61 57 56 56 58 69 67 68 67 67 68 67 67 66 67 67 67 67 68 70 72 72 72 72 71 71 72 72 72 72
59 59 58 58 57 57 56 55 57 59 60 60 59 59 60 61 62 62 60 60 61 61 60 60 59 60 59 59 59 59 60 60 60 61 61 59 60 57 56 57 61 62 60 58 60 59 55 54 54 54 57 58 63 63 62 62 61 61 61 64 64 65 64 65 65 65 65 64 64 65 65 65 65 67 70 70 69 69 70 70 70 70 71 70 70
60 59 58 56 57 57 56 54 54 56 57 57 58 58 57 58 60 62 63 61 59 58 59 59 58 57 57 57 57 58 58 58 59 60 60 59 58 59 61 60 59 59 55 56 57 54 58 58 55 55 55 57 60 62 58 60 59 59 59 60 62 62 62 63 62 63 63 62 63 63 63 63 65 67 67 66 66 67 68 68 67 67 68 68 69
57 58 57 56 56 55 55 56 55 53 54 53 53 54 55 56 58 59 57 57 60 60 58 58 57 58 57 56 57 56 56 56 58 58 57 57 58 56 57 57 58 56 52 54 60 58 56 60 56 60 56 55 54 53 53 57 56 57 57 56 59 60 59 60 59 61 60 61 61 62 62 63 63 63 64 63 64 65 67 66 66 65 65 66 65
58 57 56 56 56 58 56 56 54 55 57 59 58 58 57 55 57 58 58 57 58 59 58 57 56 57 56 56 55 55 55 56 57 49 56 47 54 59 55 54 54 55 58 52 60 58 57 55 52 52 51 49 49 50 50 51 53 55 55 55 55 54 56 56 55 55 58 58 59 60 59 61 61 61 61 62 64 64 65 64 65 64 65 64 62
57 56 56 56 56 55 54 53 54 54 52 53 55 56 55 48 52 58 57 53 48 46 49 56 57 59 56 56 58 57 56 57 45 44 42 42 43 45 44 43 42 51 51 49 57 57 55 53 50 49 50 50 48 50 48 49 51 51 53 54 53 53 52 53 53 53 56 56 56 57 57 58 58 59 60 59 59 59 59 59 61 62 62 61 60
55 54 55 54 55 55 55 55 55 56 55 55 56 55 55 55 44 44 49 49 47 43 43 43 45 46 58 56 56 48 47 44 41 41 43 44 43 42 41 41 41 42 43 58 57 53 51 51 50 50 50 51 51 50 50 50 51 51 51 51 52 51 52 52 52 53 53 53 54 55 56 56 56 58 56 56 56 56 57 58 58 59 58 57 59
54 53 54 56 57 57 57 58 57 56 56 56 56 56 55 55 54 46 43 46 45 43 43 43 43 43 43 48 56 56 49 43 41 42 43 42 44 41 41 41 41 42 43 44 57 53 51 51 51 51 50 50 50 51 51 50 51 52 51 52 51 51 52 52 52 53 53 52 52 54 54 54 55 56 55 54 54 54 55 55 56 56 55 55 56
55 55 57 57 57 57 56 57 57 56 56 56 55 55 54 53 52 53 54 42 43 43 43 43 42 42 42 41 41 42 43 42 41 41 41 42 42 43 41 41 40 41 46 53 54 53 52 52 51 52 52 51 51 51 51 50 51 52 51 53 52 51 52 55 55 54 52 52 52 52 52 52 52 53 53 53 53 52 53 53 53 53 54 54 55
57 57 57 57 57 57 56 57 57 56 56 55 54 53 53 53 52 52 52 53 54 49 44 42 42 42 41 41 42 43 42 42 41 40 40 41 41 42 40 54 47 41 46 56 52 52 50 50 51 52 51 51 51 50 51 51 51 52 51 53 52 53 53 55 54 52 51 51 51 51 51 50 52 52 52 52 52 52 51 51 52 52 52 52 52
56 55 55 55 56 56 56 55 55 56 55 55 53 53 53 53 53 52 51 51 51 52 52 54 47 43 50 46 43 43 43 43 42 40 41 41 43 40 40 56 57 54 57 51 51 50 49 50 50 50 50 51 50 50 50 51 50 50 51 51 51 51 52 52 51 52 51 50 51 50 50 52 52 50 51 50 51 51 51 50 50 51 51 50 51
53 53 53 53 54 54 54 54 54 54 54 54 54 52 52 52 51 51 51 52 50 49 49 51 52 48 46 45 44 44 44 44 43 42 42 41 42 40 54 50 49 49 49 49 49 48 48 49 49 49 49 49 50 49 50 48 50 50 49 49 51 49 50 50 50 50 51 51 50 50 49 50 50 49 49 50 51 49 49 49 50 49 49 49 49
51 51 51 52 52 52 52 52 53 52 50 51 52 51 52 52 50 49 49 49 49 48 49 52 52 53 52 52 51 46 44 44 45 44 43 45 41 53 50 48 48 49 48 49 48 47 48 48 48 48 48 48 48 48 48 48 49 50 50 50 50 49 49 48 48 50 49 49 49 50 50 49 49 50 48 48 48 48 48 49 48 48 48 48 48
48 49 49 52 52 53 51 51 50 48 50 49 52 52 51 51 50 47 48 47 48 46 48 48 45 47 47 49 47 47 48 45 46 47 44 42 52 50 48 48 48 49 48 47 47 47 47 47 48 47 48 46 47 47 47 47 47 47 48 49 49 49 48 47 49 51 51 48 48 48 48 47 48 47 47 47 47 47 47 47 47 46 47 48 48
49 48 48 48 49 50 48 48 49 48 48 48 48 49 49 47 47 46 47 46 46 45 46 46 46 45 46 47 47 47 49 47 47 47 47 47 47 47 46 46 47 47 46 48 46 46 46 45 45 46 45 46 46 46 46 46 46 46 47 46 46 47 47 47 47 49 47 47 47 46 46 46 46 46 47 46 45 46 45 45 45 45 46 46 47
46 45 46 46 46 47 47 47 46 46 46 44 44 47 48 47 45 46 45 45 44 44 44 45 44 47 47 48 47 45 45 46 46 46 46 46 46 46 46 46 45 46 46 47 45 45 45 44 45 45 46 46 46 45 45 45 45 45 46 46 44 44 45 45 44 44 45 45 45 46 44 45 45 45 45 45 45 44 44 44 44 45 45 45 45
45 44 45 46 46 45 45 47 45 46 46 45 45 45 47 47 46 45 44 44 44 43 44 45 45 45 46 43 42 42 44 45 44 44 45 44 45 45 45 44 45 45 44 44 44 44 44 43 45 44 44 45 45 45 45 44 44 44 44 44 44 43 44 45 45 43 44 43 43 43 43 43 43 44 43 44 44 43 43 43 43 44 43 44 44
45 44 44 43 44 44 43 44 45 47 47 45 46 46 47 45 44 43 44 44 43 43 42 43 43 44 44 41 39 38 40 44 46 44 44 43 45 45 44 45 44 45 45 44 44 44 44 45 44 43 42 43 43 44 43 45 43 44 43 43 43 43 43 43 44 44 43 41 42 42 42 42 43 42 42 43 42 41 41 41 42 42 42 43 43
43 42 43 42 42 44 43 44 44 43 45 44 44 45 45 44 43 44 42 43 42 42 42 43 42 44 45 43 42 42 41 42 43 44 44 43 43 43 43 43 42 43 44 44 43 45 43 42 43 42 42 42 44 43 42 43 43 43 43 43 43 43 43 43 43 43 42 41 41 42 42 42 41 41 41 41 40 40 41 41 40 40 40 41 42
42 42 43 43 44 44 44 43 43 43 44 44 44 44 44 43 42 43 42 42 42 42 42 43 41 43 43 43 42 41 41 41 41 42 42 42 42 42 42 42 43 44 45 44 44 43 43 42 42 42 43 43 43 44 43 43 43 43 43 42 42 43 43 43 42 42 41 40 40 40 40 41 42 41 41 41 40 39 39 39 39 39 40 40 39
42 42 42 42 42 44 43 44 42 43 42 43 44 43 43 41 41 42 41 41 41 41 42 40 40 41 40 42 42 41 41 41 41 41 40 40 41 41 42 44 45 45 45 44 43 43 42 42 42 42 42 42 42 42 42 43 43 42 42 42 43 42 42 42 41 41 40 41 39 39 39 39 39 39 39 39 40 39 38 38 38 40 39 39 39
42 42 42 42 43 43 42 42 43 42 42 41 41 42 41 41 41 42 40 41 40 41 41 40 40 39 39 39 39 39 39 40 40 40 40 41 41 42 43 44 44 44 43 42 42 42 41 41 40 40 41 41 41 42 41 42 42 42 43 43 42 42 41 39 40 40 39 40 38 38 38 38 38 38 40 38 38 37 37 37 38 37 37 38 38
44 43 42 42 42 42 44 44 42 42 42 41 41 41 40 40 40 40 40 40 40 40 39 39 38 38 38 39 38 39 38 39 39 39 41 42 42 42 43 44 43 43 42 41 41 40 40 40 40 40 41 40 41 42 41 41 41 41 41 41 41 40 39 39 39 39 38 38 38 37 36 37 37 37 38 37 37 36 37 35 35 37 37 38 38
42 42 42 42 42 41 42 42 41 41 40 39 39 40 39 40 39 39 39 39 38 38 38 39 38 38 38 38 38 38 39 39 39 39 39 40 41 42 43 43 42 41 41 40 40 39 39 38 39 39 39 39 40 40 40 40 41 41 40 40 41 39 39 39 39 38 38 39 38 37 37 36 36 36 36 36 36 35 35 33 35 35 38 39 39
41 41 40 40 39 39 39 38 38 38 38 38 37 38 38 38 39 37 38 38 37 37 37 38 39 37 37 38 38 37 37 38 38 39 38 39 40 41 41 41 42 41 39 38 37 38 38 38 38 38 38 39 39 40 40 40 40 40 40 40 40 39 37 38 38 39 38 39 39 38 38 36 35 36 36 37 36 35 34 36 37 39 38 40 40
40 40 39 39 38 37 38 37 37 36 37 37 37 37 37 38 37 38 37 37 37 37 38 37 37 36 35 35 36 36 37 38 37 37 38 39 38 39 39 40 39 38 38 37 36 37 37 38 38 38 38 38 38 38 38 38 38 38 39 39 38 37 36 37 38 38 38 38 38 38 38 37 37 35 34 35 36 36 37 38 39 39 39 40 41
40 38 37 37 37 37 37 36 36 36 37 38 36 36 36 37 36 36 36 37 37 37 36 36 36 35 35 35 36 36 37 37 37 37 37 36 37 37 37 37 37 37 37 37 36 36 36 36 36 36 36 37 36 36 36 36 37 40 39 39 36 35 36 37 38 36 36 36 37 38 38 37 38 37 36 35 35 35 37 39 40 40 40 40 41